Zurück zum Katalog

CZ-6A DEB

AktivPO
NORAD 60871·DEBRIS·🇨🇳 China

Gestartet Aug 6, 2024 von Taiyuan Satellite Launch Center

Loading…

Nächste Überflüge (nächste 24 Stunden)

TLE

AktuellSource: Space-Track

Epoche: Sep 14, 2026, 06:50 UTC

1 60871U 24140KA  26257.28521151  .00002208  00000-0  44460-3 0  9993
2 60871  89.0570 265.3575 0090449 256.5308 102.5812 14.58663054109215

Verfolge CZ-6A DEB in Echtzeit mit AllMySat

Download on the App Store